Weather History for SVSA - February, 2013

Change the Weather History Date:

Friday, February 22, 2013

  Actual Average Record
Temperature  
Mean Temperature 81 °F -  
Max Temperature 93 °F 87 °F 93 °F (2006)
Min Temperature 69 °F 70 °F 35 °F (2001)
Cooling Degree Days 16    
Growing Degree Days 31 (Base 50)    
Moisture  
Dew Point 68 °F    
Average Humidity 68    
Maximum Humidity 100    
Minimum Humidity 27    
Precipitation  
Precipitation 0.00 in 0.06 in - ()
Sea Level Pressure  
Sea Level Pressure 29.89 in    
Wind  
Wind Speed 3 mph ()    
Max Wind Speed 16 mph    
Max Gust Speed 28 mph    
Visibility 4.7 miles    
Events Fog    
Averages and records for this station are not official NWS values.
T = Trace of Precipitation, MM = Missing Value Source: Averaged Metar Reports

Daily Weather History Graph

Daily Weather History Graph

Search for Another Location

Airport or City:

Trip Planner

Search our weather history database for the weather conditions in past years. The results will help you decide how hot, cold, wet, or windy it might be!

Date:

Astronomy

Feb. 22, 2013 Rise Set
Actual Time 6:35 AM VET 6:31 PM VET
Civil Twilight 6:14 AM VET 6:52 PM VET
Nautical Twilight 5:49 AM VET 7:16 PM VET
Astronomical Twilight 5:25 AM VET 7:41 PM VET
Moon 4:00 PM VET (2/22) 3:54 AM VET (2/22)
Length of Visible Light 12h 38m
Length of Day
11h 55m
Waxing Gibbous, 90% of the Moon is Illuminated
Feb 22
Waxing Gibbous
Feb 25
Full
Mar 4
Last Quarter
Mar 11
New
Mar 19
First Quarter

Hourly Weather History & Observations

Time (VET) Temp. Heat Index Dew Point Humidity Pressure Visibility Wind Dir Wind Speed Gust Speed Precip Events Conditions
1:30 AM 74 °F - 68 °F 75% 29.74 in 6 mi Calm Calm - -   Scattered Clouds
1:30 AM 73.4 °F - 68.0 °F 83% 29.89 in 6.2 mi Calm Calm - N/A   Partly Cloudy
4:30 AM 73.4 °F - 68.0 °F 83% 29.89 in 6.2 mi Calm Calm - N/A   Partly Cloudy
5:30 AM 71.6 °F - 68.0 °F 88% 29.92 in 3.7 mi Calm Calm - N/A Fog Fog
6:30 AM 69.8 °F - 69.8 °F 100% 29.92 in 3.1 mi Calm Calm - N/A   Partly Cloudy
7:30 AM 69.8 °F - 68.0 °F 94% 29.95 in 3.1 mi Calm Calm - N/A   Mostly Cloudy
8:30 AM 73.4 °F - 69.8 °F 88% 29.95 in 3.1 mi Calm Calm - N/A   Partly Cloudy
9:30 AM 80.6 °F 83.9 °F 69.8 °F 70% 29.98 in 3.1 mi North 9.2 mph - N/A   Haze
10:30 AM 86.0 °F 86.1 °F 60.8 °F 43% 29.95 in 4.3 mi South 15.0 mph - N/A Fog Fog
11:30 AM 89.6 °F 89.5 °F 60.8 °F 38% 29.95 in 5.0 mi South 15.0 mph - N/A Fog Fog
12:30 PM 89.6 °F 89.5 °F 60.8 °F 38% 29.92 in 5.0 mi SE 16.1 mph 27.6 mph N/A Fog Fog
1:30 PM 93 °F - 63 °F 27% 29.74 in 5 mi SE 6.7 mph - -   Scattered Clouds
1:30 PM 93.2 °F 94.1 °F 62.6 °F 36% 29.89 in 5.0 mi SE 6.9 mph - N/A Fog Fog
2:30 PM 91.4 °F 98.4 °F 71.6 °F 52% 29.86 in 5.0 mi North 12.7 mph - N/A Fog Fog
3:30 PM 89.6 °F 96.2 °F 71.6 °F 55% 29.86 in 5.0 mi NNW 9.2 mph - N/A Fog Fog
4:30 PM 87.8 °F 93.8 °F 71.6 °F 58% 29.83 in 5.0 mi North 6.9 mph - N/A Fog Fog
5:30 PM 87.8 °F 95.6 °F 73.4 °F 62% 29.83 in 5.0 mi North 3.5 mph - N/A Fog Fog
7:30 PM 81 °F - 74 °F 73% 29.76 in 5 mi Calm Calm - -   Partly Cloudy
8:30 PM 78.8 °F - 73.4 °F 83% 29.92 in 5.0 mi Calm Calm - N/A Fog Fog
9:30 PM 77.0 °F - 73.4 °F 89% 29.95 in 5.0 mi Calm Calm - N/A Fog Fog
10:30 PM 77.0 °F - 71.6 °F 83% 29.95 in 5.0 mi Calm Calm - N/A Fog Fog